Regional Weather Roundup
Issued by NWS

Home | Current Version | Previous Version | Graphics & Text | Print | Product List | Glossary On
Versions: 1 2 3 4 5 6 7 8 9 10 11 12 13 14 15 16 17 18 19 20 21 22 23 24 25 26 27 28 29 30 31 32 33 34 35 36 37 38 39 40 41 42 43 44 45 46 47 48 49 50
000
ASUS43 KIND 270709
RWRIN

WEATHER ROUNDUP FOR INDIANA
NATIONAL WEATHER SERVICE INDIANAPOLIS IN
300 AM EDT TUE SEP 27 2016

NOTE: "FAIR" INDICATES FEW OR NO CLOUDS BELOW 12,000 FEET WITH NO
SIGNIFICANT WEATHER AND/OR OBSTRUCTIONS TO VISIBILITY.

* - STATION DOES NOT REPORT WEATHER SUCH AS PRECIPITATION OR FOG.

+ - STATION NOT QUALITY CONTROLLED BY THE NATIONAL WEATHER SERVICE.
    USE DATA WITH CAUTION...ESPECIALLY DEWPOINT AND RELATIVE
    HUMIDITY OBSERVATIONS.

INZ001>003-010>013-019-020-270800-
NORTHWEST INDIANA

CITY           SKY/WX    TMP DP  RH WIND       PRES   REMARKS
GARY /AIRPORT/ CLEAR     56  40  55 SW5       29.91F
KNOX *+        CLEAR     48  23  37 SW7       29.93R
LA PORTE +     CLEAR     51  40  66 SW8       29.92S
MICHIGAN CITY+ CLEAR     50  39  66 MISG      29.90F
MONTICELLO +   CLEAR     50  37  62 SW8       29.96S
RENSSELAER +   CLEAR     50  43  76 SW6       29.95S
VALPARAISO     CLEAR     49  40  71 SW6       29.92F

$$

LMZ046-743>745-270800-
SOUTHERN LAKE MICHIGAN

STATION/POSITION TIME  TEMP    WIND        PRES    WAVE
                       AIR SEA DIR/SP/G            HT
                 (UTC) (F)     (DEG/KT/KT) (MB)    (FT)
BURNS HARBOR     0600   61     230/ 16/ 19 1013.2F
MICHIGAN CITY    0600   60     200/ 14/ 16   N/A
5NW MICH CITY    0700   64 67  250/ 17/ 21   N/A     4

$$

INZ004-005-014>016-021>024-270800-
NORTH CENTRAL INDIANA

CITY           SKY/WX    TMP DP  RH WIND       PRES   REMARKS
GOSHEN         CLEAR     49  39  68 SW10      29.91S
LOGANSPORT +   CLEAR     50  41  71 SW9       29.96F
PERU/GRISSOM   CLEAR     49  40  72 SW10      29.95F
ROCHESTER +    CLEAR     54  41  62 SW6       29.94F
SOUTH BEND     CLEAR     50  39  66 SW12      29.90F
WARSAW +       CLEAR     52  32  46 SW7       29.93F

$$

INZ006>009-017-018-025>027-270800-
NORTHEAST INDIANA

CITY           SKY/WX    TMP DP  RH WIND       PRES   REMARKS
ANGOLA *+        N/A     48  37  66 SW5       29.91S
AUBURN +       CLEAR     52  36  54 SW7       29.93S
FORT WAYNE     CLEAR     48  40  73 SW8       29.95S
HUNTINGTON +   CLEAR     51  40  65 S6        29.95F
KENDALLVILLE + CLEAR     51  39  64 SW8       29.92S

$$

INZ028-029-035-036-043>045-051>053-270800-
WEST CENTRAL INDIANA

CITY           SKY/WX    TMP DP  RH WIND       PRES   REMARKS
CRAWFORDSVL +  CLEAR     48  42  80 SW5       30.01F
GREENCASTLE +  CLEAR     46  46 100 CALM      30.03F
LAFAYETTE      CLEAR     49  43  80 W5        29.98F
TERRE HAUTE    CLEAR     48  43  82 SW3       30.03F

$$

INZ030>032-037>040-046>048-054>057-064-065-270800-
CENTRAL INDIANA

CITY           SKY/WX    TMP DP  RH WIND       PRES   REMARKS
FRANKFORT +    CLEAR     53  41  64 SW6       30.01S
GREENWOOD *+   CLEAR     52  45  76 W3        30.02F
INDIANAPOLIS   CLEAR     49  44  83 SW7       30.01F
-EAGLE CREEK   CLEAR     56  40  55 W3        30.00F
MARION +       CLEAR     50  40  67 SW7       29.98F
MT COMFORT *+  CLEAR     50  43  76 SW6       30.01S
SHELBYVILLE    CLEAR     50  45  83 SW6       30.01F
ZIONSVILLE +   CLEAR     51  40  67 W6        30.00F

$$

INZ033-034-041-042-049-050-058-059-270800-
EAST CENTRAL INDIANA

CITY           SKY/WX    TMP DP  RH WIND       PRES   REMARKS
MUNCIE         CLEAR     54  41  61 SW7       29.99F

$$

INZ060-061-067>069-081>083-085>088-270800-
SOUTHWEST INDIANA

CITY           SKY/WX    TMP DP  RH WIND       PRES   REMARKS
EVANSVILLE     CLEAR     50  47  89 W5        30.08S
HUNTINGBURG *+   N/A     48  45  87 S3        30.07S
WASHINGTON +   CLEAR     53  47  82 MISG      30.05S

$$

INZ062-063-066-070>080-084-089>092-270800-
SOUTH CENTRAL AND SOUTHEAST INDIANA

CITY           SKY/WX    TMP DP  RH WIND       PRES   REMARKS
BLOOMINGTON    CLEAR     51  44  77 CALM      30.04S
MADISON *+     CLEAR     48  46  93 CALM      30.06F
SEYMOUR +      CLEAR     48  46  93 CALM      30.04S

$$




USA.gov is the U.S. government's official web portal to all federal, state and local government web resources and services.